Westfield, MA

1:05 PM EST on December 11, 2017 (GMT -0500)
Barnes Municipal

Weather History for KBAF - August, 2013

Change the Weather History Date:

Sunday, August 11, 2013

  Actual Average Record
Temperature  
Mean Temperature 65 °F -  
Max Temperature 81 °F 81 °F 93 °F (2002)
Min Temperature 50 °F 59 °F 48 °F (2007)
Growing Degree Days 15 (Base 50)    
Moisture  
Dew Point 53 °F    
Average Humidity 64    
Maximum Humidity 97    
Minimum Humidity 38    
Precipitation  
Precipitation 0.00 in - - ()
Sea Level Pressure  
Sea Level Pressure 30.06 in    
Wind  
Wind Speed 4 mph (NW)    
Max Wind Speed 12 mph    
Max Gust Speed -    
Visibility 10 miles    
Events      
Averages and records for this station are not official NWS values.
T = Trace of Precipitation, MM = Missing Value Source: NWS Daily Summary

Daily Weather History Graph

Daily Weather History Graph

Search for Another Location

Airport or City:

Trip Planner

Search our weather history database for the weather conditions in past years. The results will help you decide how hot, cold, wet, or windy it might be!

Date:

Astronomy

Aug. 11, 2013 Rise Set
Actual Time 5:54 AM EDT 7:56 PM EDT
Civil Twilight 5:23 AM EDT 8:27 PM EDT
Nautical Twilight 4:46 AM EDT 9:04 PM EDT
Astronomical Twilight 4:05 AM EDT 9:45 PM EDT
Moon 10:46 AM EDT 10:03 PM EDT
Length of Visible Light 15h 03m
Length of Day
14h 02m
Waxing Crescent, 22% of the Moon is Illuminated
Aug 11
Waxing Crescent
Aug 14
First Quarter
Aug 20
Full
Aug 28
Last Quarter
Sep 5
New

Hourly Weather History & Observations

Time (EDT) Temp. Dew Point Humidity Pressure Visibility Wind Dir Wind Speed Gust Speed Precip Events Conditions
12:53 AM 64.9 °F 46.0 °F 50% 30.04 in 10.0 mi NW 11.5 mph - N/A   Clear
1:53 AM 57.9 °F 48.9 °F 72% 30.05 in 10.0 mi Calm Calm - N/A   Clear
2:53 AM 61.0 °F 46.9 °F 60% 30.06 in 10.0 mi Calm Calm - N/A   Clear
3:53 AM 54.0 °F 48.9 °F 83% 30.07 in 10.0 mi Calm Calm - N/A   Clear
4:53 AM 52.0 °F 51.1 °F 97% 30.08 in 10.0 mi Calm Calm - N/A   Clear
5:53 AM 50.0 °F 48.9 °F 96% 30.10 in 10.0 mi Calm Calm - N/A   Clear
6:53 AM 54.0 °F 52.0 °F 93% 30.11 in 10.0 mi Calm Calm - N/A   Clear
7:53 AM 60.1 °F 53.1 °F 78% 30.11 in 10.0 mi Calm Calm - N/A   Clear
8:53 AM 64.0 °F 53.1 °F 67% 30.11 in 10.0 mi Calm Calm - N/A   Clear
9:53 AM 70.0 °F 55.0 °F 59% 30.11 in 10.0 mi Calm Calm - N/A   Clear
10:53 AM 73.9 °F 46.9 °F 38% 30.09 in 10.0 mi WNW 6.9 mph - N/A   Clear
11:53 AM 75.9 °F 50.0 °F 40% 30.08 in 10.0 mi NW 8.1 mph - N/A   Clear
12:53 PM 75.9 °F 50.0 °F 40% 30.06 in 10.0 mi Variable 4.6 mph - N/A   Clear
1:53 PM 78.1 °F 52.0 °F 40% 30.06 in 10.0 mi WNW 5.8 mph - N/A   Partly Cloudy
2:53 PM 79.0 °F 51.1 °F 38% 30.04 in 10.0 mi Variable 4.6 mph - N/A   Scattered Clouds
3:53 PM 80.1 °F 52.0 °F 38% 30.03 in 10.0 mi NW 6.9 mph - N/A   Mostly Cloudy
4:53 PM 80.1 °F 52.0 °F 38% 30.03 in 10.0 mi NNW 8.1 mph - N/A   Mostly Cloudy
5:53 PM 77.0 °F 54.0 °F 45% 30.03 in 10.0 mi WNW 5.8 mph - N/A   Overcast
5:57 PM 77.0 °F 53.6 °F 44% 30.03 in 10.0 mi WNW 5.8 mph - N/A   Mostly Cloudy
6:53 PM 75.9 °F 55.9 °F 50% 30.02 in 10.0 mi West 5.8 mph - N/A   Scattered Clouds
7:53 PM 73.0 °F 59.0 °F 61% 30.02 in 10.0 mi Calm Calm - N/A   Clear
8:53 PM 64.9 °F 61.0 °F 87% 30.04 in 10.0 mi Calm Calm - N/A   Clear
9:53 PM 63.0 °F 61.0 °F 93% 30.05 in 10.0 mi Calm Calm - N/A   Scattered Clouds
10:53 PM 61.0 °F 60.1 °F 97% 30.04 in 10.0 mi Calm Calm - N/A   Clear
11:53 PM 60.1 °F 59.0 °F 96% 30.04 in 10.0 mi Calm Calm - N/A   Clear